Location: American Medical Response
(33.3472°N, 96.5511°W)
Time: 08:13:27
(UTC+00:00)

Cosmos 1092 Rocket - Pass Details

Date: 08 December 2021
Orbit: 954 x 995 km, 83.0° (Epoch: 17 January)

Event Time Altitude Azimuth Distance (km) Brightness Sun altitude
Rises 12:46:41 0° 201° (SSW) 3,653 7.0 -6.7°
Reaches altitude 10° 12:49:17 10° 207° (SSW) 2,715 6.3 -6.2°
Maximum altitude 12:55:13 46° 280° (W) 1,292 4.3 -5.1°
Drops below altitude 10° 13:01:16 10° 353° (N) 2,754 6.1 -4.0°
Sets 13:03:56 0° 359° (N) 3,711 6.8 -3.4°
